Weather History for Abadan, Iran

Change the Weather History Date:

Monday, May 7, 2012

  Actual Average Record
Temperature  
Mean Temperature 88 °F -  
Max Temperature 100 °F 104 °F - ()
Min Temperature 77 °F 74 °F - ()
Cooling Degree Days 24    
Growing Degree Days 38 (Base 50)    
Moisture  
Dew Point 42 °F    
Average Humidity 19    
Maximum Humidity 39    
Minimum Humidity 7    
Precipitation  
Precipitation 0.00 in 0.00 in - ()
Sea Level Pressure  
Sea Level Pressure 29.72 in    
Wind  
Wind Speed 10 mph ()    
Max Wind Speed 28 mph    
Max Gust Speed -    
Visibility 6.1 miles    
Events      
T = Trace of Precipitation, MM = Missing Value Source: Averaged Metar Reports

Daily Weather History Graph

Daily Weather History Graph

Search for Another Location

Airport:

Trip Planner

Search our weather history database for the weather conditions in past years. The results will help you decide how hot, cold, wet, or windy it might be!

Date:

Astronomy

May. 07, 2012 Rise Set
Actual Time 6:28 AM IRDT 7:59 PM IRDT
Civil Twilight 6:02 AM IRDT 8:24 PM IRDT
Nautical Twilight 5:31 AM IRDT 8:55 PM IRDT
Astronomical Twilight 4:59 AM IRDT 9:28 PM IRDT
Moon 9:39 PM IRDT (5/7) 7:17 AM IRDT (5/7)
Length of Visible Light 14h 22m
Length of Day
13h 30m
Full, 98% of the Moon is Illuminated
May 7
Full
May 13
Last Quarter
May 21
New
May 29
First Quarter
Jun 4
Full

Hourly Weather History & Observations

Time (IRDT) Temp. Heat Index Dew Point Humidity Pressure Visibility Wind Dir Wind Speed Gust Speed Precip Events Conditions
12:00 AM 87.8 °F - 44.6 °F 22% 29.74 in - North 11.5 mph - N/A   Clear
12:30 AM 87.8 °F - 44.6 °F 22% 29.74 in - North 9.2 mph - N/A   Clear
1:30 AM 86.0 °F - 42.8 °F 22% 29.74 in - North 11.5 mph - N/A   Clear
2:30 AM 82.4 °F - 44.6 °F 26% 29.71 in - ENE 6.9 mph - N/A   Clear
3:30 AM 82.4 °F - 41.0 °F 23% 29.71 in - South 11.5 mph - N/A   Clear
4:30 AM 82 °F - 36 °F 11% 29.72 in 6 mi East 8.9 mph - -  
4:30 AM 82.4 °F - 37.4 °F 20% 29.71 in - East 9.2 mph - N/A   Clear
5:30 AM 80.6 °F - 39.2 °F 23% 29.71 in - North 9.2 mph - N/A   Clear
6:30 AM 78.8 °F - 41.0 °F 26% 29.71 in - North 11.5 mph - N/A   Clear
7:30 AM 77.0 °F - 44.6 °F 32% 29.71 in - North 4.6 mph - N/A   Clear
9:30 AM 86.0 °F - 39.2 °F 19% 29.77 in - North 6.9 mph - N/A   Clear
10:30 AM 92 °F - 39 °F 8% 29.78 in 6 mi NNW 11.2 mph - -  
10:30 AM 93.2 °F - 39.2 °F 15% 29.77 in - NNW 11.5 mph - N/A   Clear
11:30 AM 96.8 °F - 33.8 °F 11% 29.77 in - North 13.8 mph - N/A   Clear
12:30 PM 100.4 °F - 33.8 °F 10% 29.77 in - North 18.4 mph - N/A   Clear
1:30 PM 100.4 °F - 33.8 °F 10% 29.77 in - North 21.9 mph - N/A   Clear
2:30 PM 100.4 °F - 37.4 °F 11% 29.74 in - NNW 13.8 mph - N/A   Clear
3:30 PM - - - N/A% 29.71 in 6.2 mi NW 27.6 mph - N/A   Scattered Clouds
4:30 PM 99 °F - 42 °F 7% 29.73 in 6 mi WNW 15.7 mph - -   Partly Cloudy
4:30 PM 98.6 °F - 41.0 °F 14% 29.71 in 6.2 mi WNW 16.1 mph - N/A   Scattered Clouds
5:00 PM 100.4 °F - 41.0 °F 13% 29.68 in - NW 18.4 mph - N/A   Clear
5:30 PM 100.4 °F - 41.0 °F 13% 29.68 in - NW 18.4 mph - N/A   Clear
6:00 PM 98.6 °F - 41.0 °F 14% 29.68 in - NNW 13.8 mph - N/A   Clear
6:30 PM 96.8 °F - 41.0 °F 15% 29.68 in - NNW 11.5 mph - N/A   Clear
7:30 PM 96.8 °F - 42.8 °F 16% 29.68 in - North 9.2 mph - N/A   Clear
8:30 PM 91.4 °F - 48.2 °F 23% 29.68 in - NNE 4.6 mph - N/A   Clear
9:00 PM 89.6 °F - 48.2 °F 24% 29.68 in - ENE 4.6 mph - N/A   Clear
9:30 PM 87.8 °F - 50.0 °F 27% 29.71 in - Calm Calm - N/A   Clear
10:00 PM 86.0 °F - 51.8 °F 31% 29.71 in - Calm Calm - N/A   Clear
10:30 PM 85 °F - 50 °F 20% 29.73 in 6 mi Calm Calm - -  
10:30 PM 84.2 °F - 50.0 °F 30% 29.71 in - Calm Calm - N/A   Clear
11:30 PM 80.6 °F 80.3 °F 53.6 °F 39% 29.71 in - Calm Calm - N/A   Clear